Tracking 31027 objects as of 19-Jul-2025
HD Live streaming from Space Station
objects crossing your sky now

HULIANWANG DIGUI-13

Track HULIANWANG DIGUI-13 now!
10-day predictions


NORAD ID: 62973
Int'l Code: 2025-030C
Perigee: 1,156.0 km
Apogee: 1,156.9 km
Inclination: 50.0 °
Period: 108.3 minutes
Semi major axis: 7527 km
RCS: Unknown
Launch date: February 11, 2025
Source: People's Republic of China (PRC)
Launch site: Wenchang Satellite Launch Center (WSC)
Your satellite tracking list
BELINTERSAT 1
Track 1 satellite(s)




NASA's NSSDC Master Catalog

Two Line Element Set (TLE):
1 62973U 25030C   25199.80687463 -.00000103  00000-0  44549-4 0  9990
2 62973  50.0045 351.5406 0000618 184.7025 175.3842 13.29325257 21517
Source of the keplerian elements: AFSPC